"Pseudo-MPEC" for C19DCG5

Created 2026 Feb 11 14:35:04 UT using Find_Orb

Click here for an explanation of pseudo-MPECs

 
 Astrometry: 
     C19DCG5*1C2026 01 13.53745715 42 18.630+12 21 17.82   ~29Bo       VNEOCPV00
     C19DCG5 1C2026 01 13.54243315 42 18.947+12 21 18.65   ~29Bo 22.12GVNEOCPV00
     C19DCG5 1C2026 01 13.54740215 42 19.278+12 21 19.73   ~29Bo 21.80GVNEOCPV00
     C19DCG5 1C2026 01 13.55236315 42 19.624+12 21 20.56   ~29Bo 22.07GVNEOCPV00
     C19DCG5 1C2026 01 15.51418015 44 29.440+12 27 07.00   ~29Bo 21.0 RVNEOCP691
     C19DCG5 1C2026 01 15.52616015 44 30.310+12 27 09.00   ~29Bo 21.3 RVNEOCP691
     C19DCG5 1C2026 01 15.53802015 44 31.090+12 27 11.40   ~29Bo 21.1 RVNEOCP691
     C19DCG5 KC2026 01 17.48038215 46 38.791+12 33 22.50   ~29Bo 21.09GVNEOCPI52
     C19DCG5 KC2026 01 17.48658215 46 39.205+12 33 24.12   ~29Bo 21.32GVNEOCPI52
     C19DCG5 KC2026 01 17.51712715 46 41.225+12 33 29.59   ~29Bo 21.28GVNEOCPI52
     C19DCG5 1C2026 01 18.51388015 47 46.460+12 36 49.90   ~29Bo 20.9 RVNEOCP691
     C19DCG5 1C2026 01 18.52564015 47 47.230+12 36 53.30   ~29Bo 21.7 RVNEOCP691
     C19DCG5 KC2026 01 21.50509615 51 00.817+12 47 38.15   ~29Bo 21.72GVNEOCPV06
     C19DCG5 KC2026 01 21.50747815 51 00.968+12 47 38.47   ~29Bo 22.17GVNEOCPV06
     C19DCG5 KC2026 01 21.50986015 51 01.087+12 47 39.12   ~29Bo 21.93GVNEOCPV06
     C19DCG5 KC2026 01 21.51224215 51 01.303+12 47 40.02   ~29Bo 21.28GVNEOCPV06
     C19DCG5 0C2026 01 27.48819015 57 22.100+13 12 30.00   ~29Bo 20.9 RVNEOCP291
     C19DCG5 0C2026 01 27.49395015 57 22.510+13 12 31.90   ~29Bo 20.9 RVNEOCP291
     C19DCG5 0C2026 01 27.49970815 57 22.840+13 12 33.40   ~29Bo 21.0 RVNEOCP291
     C19DCG5 0C2026 01 30.46708 16 00 27.94 +13 26 30.2    ~29Bo       VNEOCP291
     C19DCG5 0C2026 01 30.49188 16 00 29.45 +13 26 37.3    ~29Bo       VNEOCP291
     C19DCG5 0C2026 01 30.51674 16 00 30.97 +13 26 44.6    ~29Bo       VNEOCP291
     C19DCG5 DC2026 02 03.44539 16 04 31.42 +13 46 55.2    ~29Bo 22.6 GVNEOCP695
     C19DCG5 DC2026 02 03.46216 16 04 32.41 +13 47 01.0    ~29Bo 22.2 GVNEOCP695
     C19DCG5 DC2026 02 03.47892 16 04 33.42 +13 47 06.2    ~29Bo 22.4 GVNEOCP695
     C19DCG5 DC2026 02 04.48795 16 05 34.21 +13 52 36.0    ~29Bo 21.9 GVNEOCP695
     C19DCG5 DC2026 02 04.49819 16 05 34.84 +13 52 39.3    ~29Bo       VNEOCP695
     C19DCG5 0C2026 02 06.47940016 07 33.010+14 03 48.80   ~29Bo 20.8 RVNEOCP291
     C19DCG5 0C2026 02 06.48701016 07 33.490+14 03 51.60   ~29Bo 20.7 RVNEOCP291
     C19DCG5 0C2026 02 06.49469016 07 33.950+14 03 54.20   ~29Bo 20.9 RVNEOCP291
     C19DCG5 1C2026 02 09.50436816 10 30.479+14 21 46.66   ~29Co 21.11GVNEOCPI52
     C19DCG5 1C2026 02 09.51181816 10 30.889+14 21 49.21   ~29Co 21.24GVNEOCPI52
     C19DCG5 1C2026 02 09.51836416 10 31.292+14 21 51.95   ~29Co 21.07GVNEOCPI52
     C19DCG5 1C2026 02 09.52669916 10 31.739+14 21 55.37   ~29Co 21.24GVNEOCPI52
     C19DCG5 1C2026 02 10.45724016 11 25.680+14 27 41.30   ~2ACK       VNEOCP691
     C19DCG5 1C2026 02 10.46622016 11 26.150+14 27 44.10   ~2ACK       VNEOCP691

Station data:
(291) LPL/Spacewatch II  (N31.961669 W111.599905)  US/Arizona.  Observers J.
   V. Scotti, R. S. McMillan. 1.8-m f/2.7 reflector + CCD.
(691) Steward Observatory, Kitt Peak - Spacewatch  (N31.962174 W111.600327)
   US/Arizona.  Observer J. V. Scotti. 0.9-m f/3 reflector + CCD.
(695) Kitt Peak  (N31.958395 W111.594670)  US/Arizona. Measurer S. Deen.
   2.3-m f/9 reflector + CCD.
(I52) Steward Observatory, Mt. Lemmon Station  (N32.442570 W110.788920)
   US/Arizona. Measurers T. Beuden, V. F. Carvajal, D. Fay, J. B. Fazekas, D.
   C. Fuls, A. R. Gibbs, A. D. Grauer, H. Gröller, J. K. Hogan, R. A.
   Kowalski, S. M. Larson, G. J. Leonard, D. Rankin, R. L. Seaman, F. C.
   Shelly, K. W. Wierzchoś. 1.0-m prime focus + CCD.
(V00) Kitt Peak-Bok  (N31.963125 W111.600190)  US/Arizona. Measurers T.
   Beuden, V. F. Carvajal, D. Fay, J. B. Fazekas, D. C. Fuls, A. R. Gibbs, A.
   D. Grauer, H. Gröller, J. K. Hogan, R. A. Kowalski, S. M. Larson, G. J.
   Leonard, D. Rankin, R. L. Seaman, F. C. Shelly, K. W. Wierzchoś. 2.25-m
   reflector + 4x4K mosaic CCD.
(V06) Catalina Sky Survey-Kuiper  (N32.416871 W110.732550)  US/Arizona.
   Measurers T. Beuden, V. F. Carvajal, D. Fay, J. B. Fazekas, D. C. Fuls, A.
   R. Gibbs, A. D. Grauer, H. Gröller, J. K. Hogan, R. A. Kowalski, S. M.
   Larson, G. J. Leonard, D. Rankin, R. L. Seaman, F. C. Shelly, K. W.
   Wierzchoś. 1.55-m reflector + CCD.

Orbital elements:  C19DCG5
   Perihelion 2026 Nov 23.171829 +/- 0.157 TT =  4:07:25.9 (JD 2461367.671829)
Epoch 2026 Feb 10.0 TT = JDT 2461081.5                           AutoNEOCP
M 359.477903925 +/- 0.028           (J2000 ecliptic)
n   0.001824414 +/- 9.85e-5         Peri.  146.970431 +/- 0.11
a  66.33158110 +/- 2.39             Node   149.984186 +/- 0.024
e   0.96276497 +/- 0.0013           Incl.   36.235252 +/- 0.0038
P 540.23227                H 14.95  G  0.15   U  6.5
q 2.469858376 +/- 0.00341    Q 130.1933038 +/- 4.77
From 36 observations 2026 Jan. 13-Feb. 10; mean residual 0".41
Residuals in arcseconds: 
260113 V00  .12+  .02+    260121 V06  .53+  .01-    260203 695  .47+  .10-    
260113 V00  .04-  .00     260121 V06  .50+  .24-    260204 695  .22+  .08+    
260113 V00  .02+  .23+    260121 V06  .01+  .14-    260204 695  .53+  .03-    
260113 V00  .31+  .21+    260121 V06  .94+  .22+    260206 291  .81-  .14+    
260115 691  .71-  .04-    260127 291  .56-  .30+    260206 291  .33-  .30+    
260115 691  .55+  .27-    260127 291  .18+  .62+    260206 291  .19-  .23+    
260115 691  .60+  .07-    260127 291  .24-  .55+    260209 I52  .33-  .39-    
260117 I52  .83-  .22+    260130 291  .04-  .23-    260209 I52  .58-  .59-    
260117 I52  .68-  .60+    260130 291  .21-  .45-    260209 I52  .17-  .27-    
260117 I52  .21-  .04-    260130 291  .25-  .50-    260209 I52  .61-  .07+    
260118 691  .19-  .96-    260203 695  .63+  .20-    260210 691  .93+  .56+    
260118 691  .07-  .00     260203 695  .39+  .15+    260210 691  .32+  .03-    

Ephemerides (geocentric):
Date (UTC) HH   RA             Dec           delta  r     elong  mag " sig PA
---- --------  ------------   ------------  ------ ------ -----  --- --------
2026 02 11 15  16 12 32.460   +14 35 04.35  3.7619 3.8181  85.8 21.6 .200 159
2026 02 11 16  16 12 34.837   +14 35 20.33  3.7611 3.8178  85.8 21.6 .202 159
2026 02 11 17  16 12 37.213   +14 35 36.33  3.7604 3.8175  85.8 21.6 .205 159
2026 02 11 18  16 12 39.589   +14 35 52.34  3.7596 3.8172  85.8 21.6 .207 159
2026 02 11 19  16 12 41.964   +14 36 08.36  3.7588 3.8169  85.9 21.6 .209 159
2026 02 11 20  16 12 44.337   +14 36 24.39  3.7580 3.8166  85.9 21.6 .211 159
2026 02 11 21  16 12 46.711   +14 36 40.44  3.7573 3.8163  85.9 21.6 .213 159
2026 02 11 22  16 12 49.083   +14 36 56.50  3.7565 3.8160  85.9 21.6 .215 158
2026 02 11 23  16 12 51.454   +14 37 12.57  3.7557 3.8157  86.0 21.6 .217 158
2026 02 12 00  16 12 53.825   +14 37 28.66  3.7549 3.8154  86.0 21.6 .219 158
2026 02 12 01  16 12 56.195   +14 37 44.76  3.7541 3.8151  86.0 21.6 .221 158
2026 02 12 02  16 12 58.564   +14 38 00.87  3.7534 3.8148  86.1 21.6 .223 158
2026 02 12 03  16 13 00.932   +14 38 17.00  3.7526 3.8145  86.1 21.6 .225 158
2026 02 12 04  16 13 03.300   +14 38 33.13  3.7518 3.8142  86.1 21.6 .228 158
2026 02 12 05  16 13 05.666   +14 38 49.28  3.7510 3.8139  86.1 21.6 .230 158
2026 02 12 06  16 13 08.032   +14 39 05.45  3.7503 3.8136  86.2 21.6 .232 158
2026 02 12 07  16 13 10.397   +14 39 21.62  3.7495 3.8133  86.2 21.6 .234 158
2026 02 12 08  16 13 12.761   +14 39 37.81  3.7487 3.8129  86.2 21.6 .236 158
2026 02 12 09  16 13 15.125   +14 39 54.01  3.7479 3.8126  86.2 21.6 .238 158
2026 02 12 10  16 13 17.487   +14 40 10.23  3.7472 3.8123  86.3 21.6 .240 158
2026 02 12 11  16 13 19.849   +14 40 26.45  3.7464 3.8120  86.3 21.6 .243 158
2026 02 12 12  16 13 22.210   +14 40 42.69  3.7456 3.8117  86.3 21.6 .245 158
2026 02 12 13  16 13 24.570   +14 40 58.95  3.7448 3.8114  86.3 21.6 .247 158
2026 02 12 14  16 13 26.929   +14 41 15.21  3.7441 3.8111  86.4 21.6 .249 158
2026 02 12 15  16 13 29.288   +14 41 31.49  3.7433 3.8108  86.4 21.6 .251 158
2026 02 12 16  16 13 31.645   +14 41 47.78  3.7425 3.8105  86.4 21.6 .254 158
2026 02 12 17  16 13 34.002   +14 42 04.08  3.7417 3.8102  86.5 21.6 .256 158
2026 02 12 18  16 13 36.358   +14 42 20.40  3.7410 3.8099  86.5 21.5 .258 158
2026 02 12 19  16 13 38.713   +14 42 36.73  3.7402 3.8096  86.5 21.5 .260 158
2026 02 12 20  16 13 41.068   +14 42 53.07  3.7394 3.8093  86.5 21.5 .262 158
2026 02 12 21  16 13 43.421   +14 43 09.43  3.7387 3.8090  86.6 21.5 .265 158
2026 02 12 22  16 13 45.774   +14 43 25.79  3.7379 3.8087  86.6 21.5 .267 158
2026 02 12 23  16 13 48.125   +14 43 42.17  3.7371 3.8084  86.6 21.5 .269 158
2026 02 13 00  16 13 50.476   +14 43 58.57  3.7363 3.8081  86.6 21.5 .271 158
2026 02 13 01  16 13 52.827   +14 44 14.97  3.7356 3.8078  86.7 21.5 .274 158
2026 02 13 02  16 13 55.176   +14 44 31.39  3.7348 3.8075  86.7 21.5 .276 158
2026 02 13 03  16 13 57.524   +14 44 47.82  3.7340 3.8072  86.7 21.5 .278 158
2026 02 13 04  16 13 59.872   +14 45 04.27  3.7332 3.8069  86.7 21.5 .281 158
2026 02 13 05  16 14 02.219   +14 45 20.73  3.7325 3.8066  86.8 21.5 .283 158
2026 02 13 06  16 14 04.565   +14 45 37.20  3.7317 3.8063  86.8 21.5 .285 158
2026 02 13 07  16 14 06.910   +14 45 53.68  3.7309 3.8060  86.8 21.5 .288 158
2026 02 13 08  16 14 09.254   +14 46 10.17  3.7301 3.8057  86.8 21.5 .290 158
2026 02 13 09  16 14 11.598   +14 46 26.68  3.7294 3.8054  86.9 21.5 .292 158
2026 02 13 10  16 14 13.940   +14 46 43.20  3.7286 3.8051  86.9 21.5 .294 158
2026 02 13 11  16 14 16.282   +14 46 59.74  3.7278 3.8048  86.9 21.5 .297 158
2026 02 13 12  16 14 18.623   +14 47 16.28  3.7270 3.8045  87.0 21.5 .299 158
2026 02 13 13  16 14 20.963   +14 47 32.84  3.7263 3.8042  87.0 21.5 .302 158
2026 02 13 14  16 14 23.302   +14 47 49.41  3.7255 3.8039  87.0 21.5 .304 158